Regional Weather Roundup
Issued by NWS Kansas City/Pleasant Hill, MO

Home | Current Version | Previous Version | Text Only | Print | Product List | Glossary On
Versions: 1 2 3 4 5 6 7 8 9 10 11 12 13 14 15 16 17 18 19 20 21 22 23 24 25 26 27 28 29 30 31 32 33 34 35 36 37 38 39 40 41 42 43 44 45 46 47 48 49 50
000
ASUS43 KEAX 260610
RWREAX

WEATHER ROUNDUP FOR EASTERN KANSAS AND NORTHWEST MISSOURI
NATIONAL WEATHER SERVICE KANSAS CITY/PLEASANT HILL MO
100 AM CDT MON JUN 26 2017

KSZ040-057-103>105-MOZ028-029-037-043-260700-
...KANSAS CITY METROPOLITAN AREA...

CITY           SKY/WX    TMP DP  RH WIND       PRES   REMARKS
K.C. INTL      CLEAR     53  52  96 W5        30.24S
6HR MIN TEMP:  49; 6HR MAX TEMP:  67;

K.C. DOWNTOWN  CLEAR     59  52  77 SW3       30.24S
6HR MIN TEMP:  58; 6HR MAX TEMP:  67;

LEES SUMMIT    CLEAR     58  50  75 W3        30.25S
6HR MIN TEMP:  58; 6HR MAX TEMP:  65;

OLATHE - IXD   PTCLDY    55  53  93 CALM      30.26S
6HR MIN TEMP:  53; 6HR MAX TEMP:  63; 6HR PCP:  0.01;

OLATHE - OJC   PTCLDY    60  53  77 NW5       30.25S
6HR MIN TEMP:  57; 6HR MAX TEMP:  64;

LAWRENCE       CLEAR     53  53 100 W3        30.26S

$$

MOZ001>008-011>017-020>025-030>033-038>040-044>046-053-054-260700-
...NORTHERN AND CENTRAL MISSOURI...

CITY           SKY/WX    TMP DP  RH WIND       PRES   REMARKS
ST. JOSEPH     CLEAR     57  54  89 S5        30.23F
6HR MIN TEMP:  55; 6HR MAX TEMP:  73;

MOSBY          CLEAR     52  52 100 CALM      30.25R
WARRENSBURG    PTCLDY    55  50  82 NW3       30.24S
WHITEMAN AFB   PTCLDY    56  56 100 CALM      30.23R
6HR MIN TEMP:  54; 6HR MAX TEMP:  69; 6HR PCP: TRACE;

CLINTON        CLOUDY    63  54  72 CALM      30.25R
SEDALIA        CLEAR     58  53  84 W3        30.25R
6HR MIN TEMP:  57; 6HR MAX TEMP:  72; 6HR PCP: TRACE;

WARSAW         NOT AVBL
CHILLICOTHE      N/A     54  50  86 CALM      30.24S
6HR MIN TEMP:  54; 6HR MAX TEMP:  75;

KIRKSVILLE     CLEAR     50  48  93 CALM      30.22S
6HR MIN TEMP:  50; 6HR MAX TEMP:  72;


$$

MOZ041-047>049-056>058-063>065-088>090-097-260700-
...EASTERN AND SOUTHERN MISSOURI...

CITY           SKY/WX    TMP DP  RH WIND       PRES   REMARKS
ST. LOUIS INTL CLEAR     60  49  66 W5        30.21R
6HR MIN TEMP:  60; 6HR MAX TEMP:  79;

SPIRIT OF STL  CLEAR     58  52  80 CALM      30.20R
COLUMBIA       CLEAR     60  51  72 NW6       30.23R
JEFFERSON CITY CLEAR     59  52  77 CALM      30.22S
ROLLA          CLOUDY    63  49  60 NW3       30.22S
OSAGE BEACH    CLOUDY    64  51  62 CALM      30.25R
SPRINGFIELD    CLOUDY    68  58  70 N6        30.23S
BRANSON          N/A     63  57  82 CALM      30.25R
JOPLIN         CLOUDY    67  60  78 CALM      30.24S
WEST PLAINS    CLOUDY    67  54  63 N7        30.23F

$$

IAZ060-094-KSZ022-034>040-054-083-096-NEZ052-066-093-260700-
...KANSAS...SOUTHEAST NEBRASKA AND IOWA...

CITY           SKY/WX    TMP DP  RH WIND       PRES   REMARKS
TOPEKA         PTCLDY    56  55  97 CALM      30.25F
6HR MIN TEMP:  56; 6HR MAX TEMP:  66;

MANHATTAN      CLOUDY    57  56  96 SW5       30.24F
EMPORIA        CLOUDY    61  59  93 CALM      30.26S
CHANUTE          N/A    N/A N/A N/A MISG      30.25R
WICHITA        CLOUDY    63  54  72 E7        30.23S
OMAHA          CLEAR     59  48  67 S8        30.18F
LINCOLN        CLEAR     62  50  64 W3        30.22R
FALLS CITY     CLEAR     54  51  90 S3        30.22R
LAMONI         PTCLDY    60  45  57 SW5       30.20F
DES MOINES     CLEAR     60  48  64 CALM      30.19F

$$




USA.gov is the U.S. government's official web portal to all federal, state and local government web resources and services.